Location: Umburanas
(4.5000°S, 37.9667°W)
Time: 16:23:02
(UTC+00:00)

ARIANE 5 DEB (SYLDA) - Pass Details

Date: 19 November 2019
Orbit: 910 x 35845 km, 2.1° (Epoch: 07 December)

Event Time Altitude Azimuth Distance (km) Brightness Sun altitude
Rises 22:59:02 0° 273° (W) 3,732 6.8 -35.7°
Reaches altitude 10° 23:01:21 10° 276° (W) 2,598 5.8 -36.2°
Enters shadow 23:03:52 33° 284° (WNW) 1,500 4.2 -36.7°
